• In Hungary
  • List of Countries
  • For 7 days
  • Water Temperature
  • Satellite Maps
  • Weather Map
  • News
  • Weather Widgets
  • user-avatar
    Login

    Hourly Weather Solwezi

    Today, 23 September, Sunday

    Time Temperature Precipitation Wind Pressure Humidity
    00:00 +30°C° 0.1 mm 2 mps 712 mmHg 62%
    01:00 +30°C° 0.1 mm 1 mps 712 mmHg 60%
    02:00 +28°C° 0 mm 0 mps 712 mmHg 61%
    03:00 +30°C° 0 mm 1 mps 712 mmHg 61%
    04:00 +29°C° 0 mm 2 mps 712 mmHg 61%
    05:00 +29°C° 0 mm 2 mps 712 mmHg 61%
    06:00 +30°C° 0 mm 2 mps 712 mmHg 59%
    07:00 +31°C° 0 mm 2 mps 713 mmHg 56%
    08:00 +31°C° 0 mm 2 mps 713 mmHg 53%
    09:00 +34°C° 0 mm 3 mps 713 mmHg 46%
    10:00 +36°C° 0 mm 4 mps 713 mmHg 39%
    11:00 +39°C° 0 mm 5 mps 714 mmHg 31%
    12:00 +40°C° 0 mm 5 mps 713 mmHg 29%
    13:00 +41°C° 0 mm 6 mps 713 mmHg 26%
    14:00 +42°C° 0 mm 6 mps 712 mmHg 24%
    15:00 +41°C° 0 mm 5 mps 712 mmHg 24%
    16:00 +41°C° 0 mm 5 mps 711 mmHg 25%
    17:00 +40°C° 0 mm 4 mps 711 mmHg 25%
    18:00 +38°C° 0 mm 3 mps 711 mmHg 27%
    19:00 +38°C° 0 mm 3 mps 712 mmHg 28%
    20:00 +37°C° 0 mm 2 mps 712 mmHg 30%
    21:00 +36°C° 0.1 mm 3 mps 712 mmHg 33%
    22:00 +35°C° 0.1 mm 3 mps 712 mmHg 36%
    23:00 +34°C° 0.1 mm 3 mps 713 mmHg 40%

    Tomorrow, 24 September, Monday

    Time Temperature Precipitation Wind Pressure Humidity
    00:00 +34°C° 0.2 mm 3 mps 712 mmHg 43%
    01:00 +32°C° 0.2 mm 2 mps 712 mmHg 46%
    02:00 +31°C° 0.2 mm 2 mps 712 mmHg 49%
    03:00 +31°C° 0 mm 1 mps 712 mmHg 50%
    04:00 +31°C° 0 mm 1 mps 712 mmHg 52%
    05:00 +30°C° 0 mm 1 mps 712 mmHg 53%
    06:00 +31°C° 0.1 mm 1 mps 712 mmHg 51%
    07:00 +31°C° 0.1 mm 2 mps 713 mmHg 49%
    08:00 +32°C° 0.1 mm 2 mps 713 mmHg 47%
    09:00 +34°C° 0.1 mm 2 mps 713 mmHg 43%
    10:00 +36°C° 0.1 mm 2 mps 713 mmHg 39%
    11:00 +37°C° 0.1 mm 2 mps 714 mmHg 35%
    12:00 +38°C° 0 mm 2 mps 713 mmHg 32%
    13:00 +39°C° 0 mm 1 mps 712 mmHg 29%
    14:00 +40°C° 0 mm 1 mps 711 mmHg 26%
    15:00 +40°C° 0 mm 1 mps 711 mmHg 26%
    16:00 +40°C° 0 mm 2 mps 711 mmHg 25%
    17:00 +40°C° 0 mm 2 mps 710 mmHg 25%
    18:00 +39°C° 0 mm 2 mps 711 mmHg 27%
    19:00 +38°C° 0 mm 3 mps 711 mmHg 30%
    20:00 +37°C° 0 mm 3 mps 712 mmHg 32%
    21:00 +35°C° 0.5 mm 6 mps 712 mmHg 38%
    22:00 +33°C° 0.5 mm 10 mps 712 mmHg 44%
    23:00 +31°C° 0.5 mm 13 mps 712 mmHg 50%

    Day after tomorrow, 25 September, Tuesday

    Time Temperature Precipitation Wind Pressure Humidity
    00:00 +32°C° 0 mm 9 mps 712 mmHg 45%
    01:00 +32°C° 0 mm 6 mps 711 mmHg 41%
    02:00 +32°C° 0 mm 2 mps 711 mmHg 36%
    03:00 +32°C° 0 mm 2 mps 710 mmHg 37%
    04:00 +31°C° 0 mm 3 mps 710 mmHg 38%
    05:00 +31°C° 0 mm 3 mps 710 mmHg 38%
    06:00 +31°C° 0.1 mm 3 mps 711 mmHg 40%
    07:00 +31°C° 0.1 mm 2 mps 712 mmHg 42%
    08:00 +32°C° 0.1 mm 2 mps 712 mmHg 43%
    09:00 +34°C° 0 mm 2 mps 713 mmHg 39%
    10:00 +36°C° 0 mm 3 mps 713 mmHg 35%
    11:00 +38°C° 0 mm 3 mps 713 mmHg 31%
    12:00 +38°C° 0 mm 3 mps 712 mmHg 29%
    13:00 +39°C° 0 mm 2 mps 712 mmHg 27%
    14:00 +40°C° 0 mm 2 mps 711 mmHg 25%
    15:00 +40°C° 0 mm 2 mps 710 mmHg 24%
    16:00 +40°C° 0 mm 2 mps 710 mmHg 23%
    17:00 +40°C° 0 mm 2 mps 710 mmHg 23%
    18:00 +39°C° 0 mm 2 mps 710 mmHg 25%
    19:00 +38°C° 0 mm 3 mps 710 mmHg 27%
    20:00 +37°C° 0 mm 3 mps 710 mmHg 29%
    21:00 +35°C° 0 mm 5 mps 711 mmHg 37%
    22:00 +34°C° 0 mm 7 mps 712 mmHg 45%
    23:00 +32°C° 0 mm 9 mps 712 mmHg 54%

    26 September, Wednesday

    Time Temperature Precipitation Wind Pressure Humidity
    00:00 +31°C° 0.2 mm 8 mps 712 mmHg 56%
    01:00 +30°C° 0.2 mm 7 mps 712 mmHg 58%
    02:00 +29°C° 0.2 mm 6 mps 712 mmHg 60%
    03:00 +29°C° 1.1 mm 5 mps 712 mmHg 63%
    04:00 +28°C° 1.1 mm 5 mps 712 mmHg 67%
    05:00 +28°C° 1.1 mm 5 mps 712 mmHg 71%
    06:00 +28°C° 0.5 mm 5 mps 713 mmHg 70%
    07:00 +28°C° 0.5 mm 5 mps 713 mmHg 68%
    08:00 +28°C° 0.5 mm 4 mps 714 mmHg 67%
    09:00 +30°C° 0 mm 4 mps 713 mmHg 57%
    10:00 +33°C° 0 mm 4 mps 713 mmHg 47%
    11:00 +35°C° 0 mm 3 mps 713 mmHg 38%
    12:00 +36°C° 0 mm 3 mps 712 mmHg 34%
    13:00 +37°C° 0 mm 2 mps 712 mmHg 30%
    14:00 +39°C° 0 mm 1 mps 711 mmHg 27%
    15:00 +39°C° 0 mm 1 mps 711 mmHg 26%
    16:00 +39°C° 0 mm 1 mps 711 mmHg 26%
    17:00 +39°C° 0 mm 1 mps 711 mmHg 26%
    18:00 +37°C° 0 mm 1 mps 711 mmHg 28%
    19:00 +36°C° 0 mm 1 mps 711 mmHg 30%
    20:00 +36°C° 0 mm 2 mps 712 mmHg 32%
    21:00 +34°C° 0.2 mm 3 mps 712 mmHg 39%
    22:00 +33°C° 0.2 mm 5 mps 712 mmHg 45%
    23:00 +32°C° 0.2 mm 7 mps 713 mmHg 52%

    27 September, Thursday

    Time Temperature Precipitation Wind Pressure Humidity
    00:00 +32°C° 0 mm 5 mps 712 mmHg 51%
    01:00 +32°C° 0 mm 4 mps 712 mmHg 51%
    02:00 +31°C° 0 mm 2 mps 711 mmHg 51%
    03:00 +31°C° 0 mm 3 mps 711 mmHg 51%
    04:00 +31°C° 0 mm 3 mps 711 mmHg 51%
    05:00 +31°C° 0 mm 3 mps 711 mmHg 51%
    06:00 +31°C° 0 mm 3 mps 712 mmHg 50%
    07:00 +31°C° 0 mm 3 mps 712 mmHg 49%
    08:00 +32°C° 0 mm 2 mps 713 mmHg 48%
    09:00 +34°C° 0 mm 3 mps 713 mmHg 43%
    10:00 +36°C° 0 mm 3 mps 713 mmHg 38%
    11:00 +38°C° 0 mm 3 mps 713 mmHg 33%
    12:00 +38°C° 0 mm 2 mps 712 mmHg 30%
    13:00 +39°C° 0 mm 2 mps 711 mmHg 28%
    14:00 +40°C° 0 mm 1 mps 711 mmHg 25%
    15:00 +40°C° 0 mm 1 mps 710 mmHg 24%
    16:00 +40°C° 0 mm 1 mps 710 mmHg 24%
    17:00 +40°C° 0 mm 1 mps 710 mmHg 23%
    18:00 +39°C° 0 mm 1 mps 711 mmHg 25%
    19:00 +38°C° 0 mm 2 mps 711 mmHg 27%
    20:00 +38°C° 0 mm 2 mps 711 mmHg 28%
    21:00 +37°C° 0 mm 2 mps 711 mmHg 30%
    22:00 +36°C° 0 mm 2 mps 712 mmHg 31%
    23:00 +36°C° 0 mm 2 mps 712 mmHg 33%

    28 September, Friday

    Time Temperature Precipitation Wind Pressure Humidity
    00:00 +35°C° 0.3 mm 3 mps 711 mmHg 37%
    01:00 +34°C° 0.3 mm 3 mps 711 mmHg 42%
    02:00 +33°C° 0.3 mm 4 mps 710 mmHg 46%
    03:00 +32°C° 0 mm 4 mps 710 mmHg 49%
    04:00 +32°C° 0 mm 4 mps 711 mmHg 52%
    05:00 +30°C° 0 mm 4 mps 711 mmHg 54%
    06:00 +32°C° 0 mm 4 mps 711 mmHg 53%
    07:00 +32°C° 0 mm 4 mps 712 mmHg 52%
    08:00 +32°C° 0 mm 4 mps 713 mmHg 51%
    09:00 +34°C° 0 mm 4 mps 713 mmHg 46%
    10:00 +36°C° 0 mm 4 mps 713 mmHg 41%
    11:00 +37°C° 0 mm 3 mps 713 mmHg 35%
    12:00 +38°C° 0 mm 3 mps 712 mmHg 33%
    13:00 +39°C° 0 mm 2 mps 711 mmHg 30%
    14:00 +40°C° 0 mm 1 mps 710 mmHg 28%
    15:00 +40°C° 0 mm 1 mps 710 mmHg 27%
    16:00 +40°C° 0 mm 1 mps 710 mmHg 27%
    17:00 +40°C° 0 mm 1 mps 710 mmHg 26%
    18:00 +39°C° 0 mm 1 mps 710 mmHg 27%
    19:00 +39°C° 0 mm 1 mps 710 mmHg 28%
    20:00 +39°C° 0 mm 1 mps 711 mmHg 28%
    21:00 +37°C° 0 mm 1 mps 711 mmHg 31%
    22:00 +36°C° 0 mm 1 mps 711 mmHg 33%
    23:00 +35°C° 0 mm 1 mps 710 mmHg 36%
    Show more